Location: Poprad
(49.0500°N, 20.3000°E)
Time: 18:50:45
(UTC+02:00)

RS-44 - Pass Details

Date: 27 April 2024
Orbit: 1174 x 1511 km, 82.5° (Epoch: 20 May)

Event Time Altitude Azimuth Distance (km) Brightness Sun altitude
Rises 22:21:19 0° 252° (WSW) 4,576 ? -20.1°
Reaches altitude 10° 22:25:46 10° 272° (W) 3,550 ? -20.5°
Maximum altitude 22:30:43 16° 308° (NW) 3,014 ? -20.9°
Drops below altitude 10° 22:35:31 10° 345° (NNW) 3,414 ? -21.3°
Sets 22:39:43 0° 6° (N) 4,322 ? -21.7°
